This demonstration page uses our WeatherBlox Daily Observations layout. Learn more.

Left ArrowRight Arrow

34.02893, -84.19858

Hourly Observations for October 8, 2022

Temp ( °F °C ) Dew Point ( °F °C ) Humidity (%) Winds ( mph kmh ) Pressure ( in mb ) Visibility ( mi km ) Precip ( " mm )
12:53 am 00:53 Clear 63 17.2 52 11.1 67 67 NNW 6 9 30.14 1021 10 16 0.00 0.00
1:53 am 01:53 Clear 62 16.7 52 11.1 70 70 NNW 6 9 30.14 1021 10 16 0.00 0.00
2:53 am 02:53 Clear 58 14.4 52 11.1 81 81 Calm 30.15 1021 10 16 0.00 0.00
3:53 am 03:53 Clear 59 15 53 11.7 81 81 WNW 7 11 30.15 1021 10 16 0.00 0.00
4:53 am 04:53 Clear 57 13.9 52 11.1 83 83 WNW 5 7 30.16 1021 10 16 0.00 0.00
5:53 am 05:53 Clear 55 12.8 51 10.6 86 86 WNW 5 7 30.17 1022 10 16 0.00 0.00
6:53 am 06:53 Clear 55 12.8 50 10 83 83 NW 7 11 30.19 1022 10 16 0.00 0.00
7:53 am 07:53 Sunny 54 12.2 49 9.4 83 83 NW 5 7 30.20 1023 10 16 0.00 0.00
8:53 am 08:53 Sunny 57 13.9 49 9.4 74 74 NW 7 11 30.22 1024 10 16 0.00 0.00
9:53 am 09:53 Sunny 61 16.1 47 8.3 60 60 NNW 9 15 30.23 1024 10 16 0.00 0.00
10:53 am 10:53 Sunny 65 18.3 46 7.8 50 50 N 9 15 30.23 1024 10 16 0.00 0.00
11:53 am 11:53 Sunny 67 19.4 42 5.6 40 40 NNW 12 19 30.22 1024 10 16 0.00 0.00
12:53 pm 12:53 Sunny 71 21.7 43 6.1 36 36 WNW 8 13 30.21 1023 10 16 0.00 0.00
1:53 pm 13:53 Sunny 71 21.7 41 5 34 34 NW 14 22 30.19 1022 10 16 0.00 0.00
2:53 pm 14:53 Sunny 72 22.2 38 3.3 29 29 NNW 14 22 30.17 1022 10 16 0.00 0.00
3:53 pm 15:53 Sunny 73 22.8 37 2.8 27 27 WNW 15 24 30.15 1021 10 16 0.00 0.00
4:53 pm 16:53 Sunny 71 21.7 32 0 24 24 NW 10 17 30.15 1021 10 16 0.00 0.00
5:53 pm 17:53 Sunny 69 20.6 32 0 25 25 WNW 12 19 30.16 1021 10 16 0.00 0.00
6:53 pm 18:53 Sunny 65 18.3 29 -1.7 26 26 NW 10 17 30.17 1022 10 16 0.00 0.00
7:53 pm 19:53 Clear 61 16.1 31 -0.6 32 32 NW 10 17 30.20 1023 10 16 0.00 0.00
8:53 pm 20:53 Clear 59 15 31 -0.6 34 34 NW 9 15 30.20 1023 10 16 0.00 0.00
9:53 pm 21:53 Clear 57 13.9 32 0 38 38 NNW 12 19 30.20 1023 10 16 0.00 0.00
10:53 pm 22:53 Clear 54 12.2 33 0.6 45 45 NNW 6 9 30.21 1023 10 16 0.00 0.00
11:53 pm 23:53 Clear 52 11.1 34 1.1 50 50 NNW 7 11 30.20 1023 10 16 0.00 0.00

Powered by AerisWeather